Weather History for KDCM - March, 2013

Change the Weather History Date:

Tuesday, March 19, 2013

  Actual Average (KUZA) Record (KUZA)
Temperature  
Mean Temperature 55 °F -  
Max Temperature 68 °F 65 °F 82 °F (1963)
Min Temperature 42 °F 42 °F 24 °F (1949)
Degree Days  
Heating Degree Days 10    
Growing Degree Days 5 (Base 50)    
Moisture  
Dew Point 34 °F    
Average Humidity 59    
Maximum Humidity 100    
Minimum Humidity 17    
Precipitation  
Precipitation 0.00 in - - ()
Sea Level Pressure  
Sea Level Pressure 29.95 in    
Wind  
Wind Speed 5 mph (NW)    
Max Wind Speed 13 mph    
Max Gust Speed 25 mph    
Visibility 7 miles    
Events Fog    
Averages and records for this station are not official NWS values.
T = Trace of Precipitation, MM = Missing Value Source: NWS Daily Summary

Daily Weather History Graph

Daily Weather History Graph

Search for Another Location

Airport or City:

Trip Planner

Search our weather history database for the weather conditions in past years. The results will help you decide how hot, cold, wet, or windy it might be!

Date:

Astronomy

Mar. 19, 2013 Rise Set
Actual Time 7:29 AM EDT 7:35 PM EDT
Civil Twilight 7:04 AM EDT 8:01 PM EDT
Nautical Twilight 6:34 AM EDT 8:30 PM EDT
Astronomical Twilight 6:05 AM EDT 9:00 PM EDT
Moon 12:31 PM EDT (3/19) 2:08 AM EDT (3/19)
Length of Visible Light 12h 56m
Length of Day
12h 06m
Waxing Crescent, 49% of the Moon is Illuminated
Mar 19
Waxing Crescent
Mar 19
First Quarter
Mar 27
Full
Apr 3
Last Quarter
Apr 10
New

Hourly Weather History & Observations

Time (EDT) Temp. Windchill Dew Point Humidity Pressure Visibility Wind Dir Wind Speed Gust Speed Precip Events Conditions
12:15 AM 42.8 °F 39.3 °F 42.8 °F 100% 29.87 in 5.0 mi North 5.8 mph - N/A   Overcast
12:35 AM 42.8 °F - 42.8 °F 100% 29.88 in 4.0 mi Calm Calm - N/A   Overcast
12:55 AM 42.8 °F - 42.8 °F 100% 29.89 in 3.0 mi Calm Calm - N/A   Overcast
1:15 AM 42.8 °F 41.1 °F 42.8 °F 100% 29.90 in 1.5 mi NW 3.5 mph - N/A   Overcast
1:35 AM 42.8 °F 40.1 °F 42.8 °F 100% 29.88 in 0.5 mi NNW 4.6 mph - N/A Fog Fog
1:55 AM 42.8 °F 40.1 °F 42.8 °F 100% 29.88 in 0.2 mi North 4.6 mph - N/A Fog Fog
2:15 AM 42.8 °F 41.1 °F 42.8 °F 100% 29.89 in 0.2 mi WNW 3.5 mph - N/A Fog Fog
2:35 AM 42.8 °F 41.1 °F 42.8 °F 100% 29.89 in 0.5 mi WNW 3.5 mph - N/A Fog Fog
2:55 AM 42.8 °F 40.1 °F 42.8 °F 100% 29.89 in 0.5 mi WNW 4.6 mph - N/A Fog Fog
3:15 AM 42.8 °F - 42.8 °F 100% 29.88 in 0.5 mi Calm Calm - N/A Fog Fog
3:55 AM 42.8 °F 41.1 °F 42.8 °F 100% 29.88 in 0.5 mi WNW 3.5 mph - N/A Fog Fog
4:15 AM 42.8 °F 40.1 °F 42.8 °F 100% 29.87 in 0.8 mi NW 4.6 mph - N/A   Overcast
4:35 AM 42.8 °F 41.1 °F 42.8 °F 100% 29.86 in 0.8 mi NNW 3.5 mph - N/A   Overcast
4:55 AM 42.8 °F - 42.8 °F 100% 29.86 in 0.5 mi Calm Calm - N/A Fog Fog
5:15 AM 42.8 °F 40.1 °F 42.8 °F 100% 29.86 in 1.0 mi NW 4.6 mph - N/A   Overcast
5:35 AM 42.8 °F - 42.8 °F 100% 29.88 in 1.8 mi Calm Calm - N/A   Overcast
5:55 AM 42.8 °F 41.1 °F 42.8 °F 100% 29.89 in 2.0 mi WNW 3.5 mph - N/A   Overcast
6:15 AM 42.8 °F - 42.8 °F 100% 29.88 in 1.5 mi Calm Calm - N/A   Overcast
6:35 AM 42.8 °F - 42.8 °F 100% 29.89 in 0.8 mi Calm Calm - N/A   Overcast
6:55 AM 42.8 °F - 42.8 °F 100% 29.89 in 0.8 mi Calm Calm - N/A   Overcast
7:15 AM 42.8 °F - 42.8 °F 100% 29.91 in 0.8 mi Calm Calm - N/A   Overcast
7:35 AM 42.8 °F - 42.8 °F 100% 29.91 in 0.5 mi Calm Calm - N/A Fog Fog
7:55 AM 42.8 °F 41.1 °F 42.8 °F 100% 29.91 in 0.5 mi West 3.5 mph - N/A Fog Fog
8:15 AM 42.8 °F - 42.8 °F 100% 29.92 in 0.2 mi Calm Calm - N/A Fog Fog
8:35 AM 44.6 °F 42.2 °F 44.6 °F 100% 29.93 in 0.2 mi West 4.6 mph - N/A Fog Fog
8:55 AM 44.6 °F 41.4 °F 44.6 °F 100% 29.94 in 1.0 mi WNW 5.8 mph - N/A   Overcast
9:15 AM 44.6 °F 41.4 °F 44.6 °F 100% 29.95 in 3.0 mi West 5.8 mph - N/A   Overcast
9:35 AM 46.4 °F 44.3 °F 46.4 °F 100% 29.95 in 10.0 mi WNW 4.6 mph - N/A   Overcast
9:55 AM 48.2 °F - 48.2 °F 100% 29.96 in 10.0 mi West 3.5 mph - N/A   Scattered Clouds
10:15 AM 50.0 °F - 50.0 °F 100% 29.96 in 10.0 mi WNW 8.1 mph - N/A   Clear
10:35 AM 53.6 °F - 44.6 °F 72% 29.97 in 10.0 mi NNW 8.1 mph - N/A   Clear
10:55 AM 55.4 °F - 42.8 °F 63% 29.97 in 10.0 mi NW 9.2 mph - N/A   Clear
11:15 AM 57.2 °F - 41.0 °F 55% 29.97 in 10.0 mi NW 9.2 mph - N/A   Clear
11:35 AM 59.0 °F - 37.4 °F 45% 29.97 in 10.0 mi NW 9.2 mph - N/A   Clear
11:55 AM 59.0 °F - 32.0 °F 36% 29.97 in 10.0 mi West 9.2 mph - N/A   Clear
12:15 PM 60.8 °F - 32.0 °F 34% 29.96 in 10.0 mi NW 10.4 mph - N/A   Clear
12:35 PM 60.8 °F - 32.0 °F 34% 29.97 in 10.0 mi NW 9.2 mph - N/A   Clear
12:55 PM 62.6 °F - 32.0 °F 32% 29.96 in 10.0 mi West 5.8 mph - N/A   Clear
1:15 PM 62.6 °F - 30.2 °F 30% 29.97 in 10.0 mi WNW 9.2 mph - N/A   Clear
1:35 PM 64.4 °F - 26.6 °F 24% 29.97 in 10.0 mi NW 12.7 mph 19.6 mph N/A   Clear
1:55 PM 66.2 °F - 24.8 °F 21% 29.95 in 10.0 mi NW 10.4 mph 18.4 mph N/A   Clear
2:15 PM 66.2 °F - 23.0 °F 19% 29.95 in 10.0 mi WNW 9.2 mph - N/A   Clear
2:35 PM 68.0 °F - 26.6 °F 21% 29.95 in 10.0 mi NW 6.9 mph - N/A   Clear
2:55 PM 66.2 °F - 23.0 °F 19% 29.94 in 10.0 mi West 9.2 mph 16.1 mph N/A   Clear
3:15 PM 68.0 °F - 24.8 °F 20% 29.94 in 10.0 mi NW 9.2 mph - N/A   Clear
3:35 PM 68.0 °F - 21.2 °F 17% 29.94 in 10.0 mi NW 11.5 mph 25.3 mph N/A   Clear
3:55 PM 68.0 °F - 24.8 °F 20% 29.94 in 10.0 mi WNW 10.4 mph 16.1 mph N/A   Clear
4:15 PM 68.0 °F - 24.8 °F 20% 29.94 in 10.0 mi West 8.1 mph - N/A   Clear
4:35 PM 68.0 °F - 26.6 °F 21% 29.94 in 10.0 mi NW 8.1 mph - N/A   Clear
4:55 PM 68.0 °F - 28.4 °F 23% 29.94 in 10.0 mi WNW 9.2 mph - N/A   Clear
5:15 PM 68.0 °F - 28.4 °F 23% 29.94 in 10.0 mi NW 10.4 mph - N/A   Clear
5:35 PM 66.2 °F - 28.4 °F 24% 29.95 in 10.0 mi NNW 11.5 mph - N/A   Clear
5:55 PM 66.2 °F - 26.6 °F 23% 29.95 in 10.0 mi North 9.2 mph - N/A   Clear
6:15 PM 64.4 °F - 26.6 °F 24% 29.95 in 10.0 mi NNW 8.1 mph - N/A   Clear
6:35 PM 62.6 °F - 26.6 °F 26% 29.96 in 10.0 mi NNW 9.2 mph - N/A   Clear
6:55 PM 62.6 °F - 24.8 °F 24% 29.97 in 10.0 mi NNW 8.1 mph - N/A   Clear
7:15 PM 60.8 °F - 23.0 °F 23% 29.97 in 10.0 mi NNW 6.9 mph - N/A   Clear
7:35 PM 60.8 °F - 24.8 °F 25% 29.98 in 10.0 mi NNW 5.8 mph - N/A   Clear
7:55 PM 59.0 °F - 23.0 °F 25% 29.99 in 10.0 mi NW 8.1 mph - N/A   Clear
8:15 PM 59.0 °F - 23.0 °F 25% 30.00 in 10.0 mi NW 6.9 mph - N/A   Clear
8:35 PM 55.4 °F - 23.0 °F 29% 30.01 in 10.0 mi NW 5.8 mph - N/A   Clear
8:55 PM 55.4 °F - 23.0 °F 29% 30.02 in 10.0 mi NW 6.9 mph - N/A   Clear
9:15 PM 55.4 °F - 23.0 °F 29% 30.02 in 10.0 mi NW 5.8 mph - N/A   Clear
9:35 PM 53.6 °F - 23.0 °F 30% 30.03 in 10.0 mi NW 5.8 mph - N/A   Clear
9:55 PM 53.6 °F - 23.0 °F 30% 30.04 in 10.0 mi NW 8.1 mph - N/A   Clear
10:15 PM 53.6 °F - 23.0 °F 30% 30.04 in 10.0 mi NW 6.9 mph - N/A   Clear
10:35 PM 53.6 °F - 23.0 °F 30% 30.04 in 10.0 mi NW 5.8 mph - N/A   Clear
10:55 PM 51.8 °F - 24.8 °F 35% 30.05 in 10.0 mi NNW 5.8 mph - N/A   Clear
11:15 PM 50.0 °F - 26.6 °F 40% 30.05 in 10.0 mi North 5.8 mph - N/A   Clear
11:35 PM 51.8 °F - 24.8 °F 35% 30.05 in 10.0 mi NNW 5.8 mph - N/A   Clear
11:55 PM 51.8 °F - 24.8 °F 35% 30.05 in 10.0 mi NNW 4.6 mph - N/A   Clear